Погода в Алексеевском

Россия / Ставропольский край     44°25′24″N   42°23′09″E
темп.,
°C
ветер,
м/с
пор.,
м/с
влажн.,
%
обл.,
%
осадки,
мм/ч
давл.,
гПа
погр.,
м
8 мая, сб
сб800:00+13ю117280 0.0 101810
03:00+11вюв33855 0.0 101827
06:00+11вюв368884 0.0 1017144
09:00+17вюв576691 0.0 1016650
12:00+20вюв6653100 0.0 10141127
15:00+21вюв665367 0.0 10131133
18:00+18вюв4868100 0.0 1012331
21:00+14юв367659 0.0 101375
9 мая, вс
вс900:00+12юв358549 0.0 101072
03:00+12ююз1184100 0.0 101011
06:00+13зсз488060 0.0 1009283
09:00+17сз567197 0.0 10091032
12:00+10з91488100 0.6 1013649
15:00+7зсз91392100 2.3 1016999
18:00+5зсз91394100 1.8 1019943
21:00+5зюз71393100 2.6 1023922
10 мая, пн
пн1000:00+6з81290100 0.1 1023900
03:00+6з6128454 0.2 1023661
06:00+5з6138413 0.0 1023522
09:00+9зсз8116374 0.1 10221544
12:00+11зсз9115287 0.1 10202140
15:00+11зсз9125227 0.1 10191944
18:00+8зсз7117194 0.2 10211138
21:00+5з51186100 0.4 1022603
11 мая, вт
вт1100:00+5зюз61184100 0.0 1020739
03:00+4юз2387100 0.0 1020104
06:00+5юв3686100 0.0 1020179
09:00+10вюв5665100 0.0 1018797
12:00+11вюв6759100 0.0 10171288
15:00+10вюв6771100 0.2 1019790
18:00+11вюв477195 0.1 1019828
21:00+6вюв36895 0.1 1019108
12 мая, ср
ср1200:00+5вюв33935 0.0 101950
03:00+5вюв229634 0.0 101929
06:00+6в25938 0.0 1018163
09:00+12вюв710665 0.0 1017780
12:00+16вюв896192 0.0 10161188
15:00+17вюв776124 0.0 10151266
18:00+15вюв57730 0.0 1016644
21:00+10вюв48881 0.0 1016115